Location: Espelette
(43.3402°N, 1.4474°W)
Time: 00:26:59
(UTC+00:00)

Meteor 1-11 Rocket - Pass Details

Date: 19 May 2025
Orbit: 829 x 915 km, 81.2° (Epoch: 18 June)

Event Time Altitude Azimuth Distance (km) Brightness Sun altitude
Rises 22:44:30 0° 348° (NNW) 3,383 8.2 -24.2°
Reaches altitude 10° 22:46:54 10° 348° (NNW) 2,445 7.2 -24.3°
Maximum altitude 22:52:26 80° 262° (W) 851 3.6 -24.7°
Enters shadow 22:53:19 63° 193° (SSW) 930 3.6 -24.7°
